Tracking 25954 objects as of 14-Aug-2022
HD Live streaming from Space Station
objects crossing your sky now

SL-12 R/B(AUX MOTOR)

Track SL-12 R/B(AUX MOTOR) now!
10-day predictions


NORAD ID: 16446
Int'l Code: 1985-118L
Perigee: 678.3 km
Apogee: 18,040.0 km
Inclination: 65.2 °
Period: 327.2 minutes
Semi major axis: 15730 km
RCS: 0.6158 m2 (medium)
Launch date: December 24, 1985
Source: Commonwealth of Independent States (former USSR) (CIS)
Launch site: TYURATAM MISSILE AND SPACE COMPLEX (TTMTR)

Note: This is a ROCKET BODY
aabbcc
Your satellite tracking list
Your tracking list is empty




NASA's NSSDC Master Catalog

Two Line Element Set (TLE):
1 16446U 85118L   22225.06273739  .00000101  00000-0  53026-3 0  9995
2 16446  65.2189 144.3990 5518614  78.8015 335.7609  4.40053137576012
Source of the keplerian elements: AFSPC